This demonstration page uses our WeatherBlox Daily Observations layout. Learn more.

38.88101, -77.10428

Hourly Observations for October 21, 2019

Temp ( °F °C ) Dew Point ( °F °C ) Humidity (%) Winds ( mph kmh ) Pressure ( in mb ) Visibility ( mi km ) Precip ( " mm )
12:52 am 00:52 Cloudy 56 13.3 53 11.7 90 90 NNW 9 15 29.97 1015 10 16.09344 0 0
1:52 am 01:52 Cloudy 56 13.3 53 11.7 90 90 NNW 14 22 29.97 1015 9 14.484096 0 0
2:12 am 02:12 Cloudy 56 13.3 53 11.7 90 90 NNW 14 22 30 1016 10 16.09344 0 0
2:52 am 02:52 Cloudy 56 13.3 52 11.1 87 87 NNW 13 20 30 1016 10 16.09344 0 0
3:52 am 03:52 Cloudy 55 12.8 51 10.6 87 87 N 10 17 30 1016 10 16.09344 0 0
4:52 am 04:52 Cloudy 55 12.8 51 10.6 87 87 N 13 20 30.03 1017 10 16.09344 0 0
5:05 am 05:05 Cloudy 55 12.8 51 10.6 87 87 N 10 17 30.03 1017 10 16.09344 0 0
5:52 am 05:52 Cloudy 55 12.8 50 10 83 83 N 15 24 30.03 1017 10 16.09344 0 0
6:52 am 06:52 Cloudy 55 12.8 50 10 83 83 N 13 20 30.03 1017 10 16.09344 0 0
7:52 am 07:52 Cloudy 55 12.8 50 10 83 83 N 10 17 30.06 1018 10 16.09344 0 0
8:52 am 08:52 Cloudy 56 13.3 50 10 81 81 N 8 13 30.09 1019 10 16.09344 0 0
9:41 am 09:41 Mostly Cloudy 57 13.9 51 10.6 81 81 N 6 9 30.12 1020 10 16.09344 0 0
9:52 am 09:52 Mostly Cloudy 58 14.4 50 10 75 75 NE 7 11 30.09 1019 10 16.09344 0 0
10:52 am 10:52 Mostly Cloudy 60 15.6 50 10 70 70 NNE 6 9 30.09 1019 10 16.09344 0 0
11:01 am 11:01 Partly Cloudy 61 16.1 51 10.6 70 70 NNE 8 13 30.12 1020 10 16.09344 0 0
11:52 am 11:52 Mostly Sunny 63 17.2 50 10 63 63 ENE 3 6 30.09 1019 10 16.09344 0 0
12:52 pm 12:52 Mostly Sunny 66 18.9 49 9.4 54 54 Calm 30.09 1019 10 16.09344 0 0
1:52 pm 13:52 Mostly Sunny 67 19.4 49 9.4 53 53 Calm 30.06 1018 10 16.09344 0 0
2:52 pm 14:52 Partly Cloudy 70 21.1 50 10 49 49 N 3 6 30.03 1017 10 16.09344 0 0
3:52 pm 15:52 Partly Cloudy 69 20.6 50 10 51 51 VRB 3 6 30.03 1017 10 16.09344 0 0
4:52 pm 16:52 Partly Cloudy 68 20 51 10.6 55 55 S 5 7 30.03 1017 10 16.09344 0 0
5:52 pm 17:52 Partly Cloudy 67 19.4 51 10.6 57 57 S 3 6 30.03 1017 10 16.09344 0 0
6:52 pm 18:52 Partly Cloudy 63 17.2 53 11.7 70 70 SE 9 15 30.06 1018 10 16.09344 0 0
7:52 pm 19:52 Mostly Cloudy 61 16.1 53 11.7 75 75 S 7 11 30.06 1018 10 16.09344 0 0
8:52 pm 20:52 Mostly Cloudy 61 16.1 54 12.2 78 78 S 9 15 30.06 1018 10 16.09344 0 0
9:52 pm 21:52 Mostly Cloudy 60 15.6 54 12.2 80 80 ESE 8 13 30.09 1019 10 16.09344 0 0
10:29 pm 22:29 Cloudy 60 15.6 54 12.2 80 80 SSE 5 7 30.09 1019 10 16.09344 0 0
10:52 pm 22:52 Cloudy 60 15.6 54 12.2 80 80 S 7 11 30.09 1019 10 16.09344 0 0
11:52 pm 23:52 Cloudy 60 15.6 55 12.8 84 84 S 9 15 30.06 1018 10 16.09344 0 0

Powered by AerisWeather